TimeAKST,TemperatureF,Dew PointF,Humidity,Sea Level PressureIn,VisibilityMPH,Wind Direction,Wind SpeedMPH,Gust SpeedMPH,PrecipitationIn,Events,Conditions,WindDirDegrees,DateUTC
12:53 AM,-9.0,-20.9,56,30.86,10.0,ESE,19.6,32.2,N/A,,Clear,120,2013-12-03 09:53:00
1:53 AM,-8.0,-20.0,56,30.85,10.0,SE,20.7,36.8,N/A,,Clear,130,2013-12-03 10:53:00
3:53 AM,-8.0,-20.0,56,30.84,10.0,ESE,19.6,34.5,N/A,,Clear,120,2013-12-03 12:53:00
4:53 AM,-8.0,-20.0,56,30.85,10.0,SE,15.0,32.2,N/A,,Clear,130,2013-12-03 13:53:00
5:53 AM,-8.0,-20.0,56,30.85,10.0,SE,17.3,33.4,0.00,,Clear,130,2013-12-03 14:53:00
6:53 AM,-8.0,-20.0,56,30.84,10.0,SE,15.0,28.8,N/A,,Clear,130,2013-12-03 15:53:00
7:53 AM,-7.1,-20.0,53,30.83,10.0,SE,16.1,33.4,N/A,,Clear,130,2013-12-03 16:53:00
8:53 AM,-8.0,-20.0,56,30.82,10.0,SE,16.1,33.4,N/A,,Clear,130,2013-12-03 17:53:00
9:53 AM,-9.0,-20.9,56,30.81,10.0,SE,20.7,34.5,N/A,,Clear,130,2013-12-03 18:53:00
10:53 AM,-9.0,-20.9,56,30.80,10.0,SE,20.7,33.4,N/A,,Clear,130,2013-12-03 19:53:00
11:53 AM,-7.1,-20.0,53,30.80,10.0,SE,17.3,36.8,N/A,,Clear,140,2013-12-03 20:53:00
12:53 PM,-8.0,-20.0,56,30.79,10.0,SE,13.8,34.5,N/A,,Partly Cloudy,140,2013-12-03 21:53:00
1:53 PM,-7.1,-20.0,53,30.77,10.0,ESE,19.6,38.0,N/A,,Mostly Cloudy,120,2013-12-03 22:53:00
2:53 PM,-6.0,-18.0,56,30.76,10.0,ESE,16.1,29.9,N/A,,Clear,120,2013-12-03 23:53:00
3:53 PM,-6.0,-18.9,54,30.73,10.0,SE,17.3,35.7,N/A,,Overcast,130,2013-12-04 00:53:00
4:53 PM,-5.1,-18.0,54,30.72,10.0,ESE,18.4,35.7,N/A,,Overcast,120,2013-12-04 01:53:00
5:53 PM,-4.0,-17.0,54,30.70,10.0,ESE,18.4,32.2,N/A,,Overcast,120,2013-12-04 02:53:00
6:53 PM,-4.0,-17.0,54,30.70,10.0,SE,18.4,33.4,N/A,,Overcast,130,2013-12-04 03:53:00
7:53 PM,-4.0,-17.0,54,30.69,10.0,SE,18.4,34.5,N/A,,Clear,130,2013-12-04 04:53:00
8:53 PM,-4.0,-16.1,56,30.66,10.0,SE,15.0,35.7,N/A,,Partly Cloudy,130,2013-12-04 05:53:00
9:53 PM,-2.9,-16.1,54,30.66,10.0,ESE,16.1,31.1,N/A,,Clear,120,2013-12-04 06:53:00
10:53 PM,-2.0,-15.0,54,30.64,10.0,SE,17.3,31.1,N/A,,Clear,130,2013-12-04 07:53:00
11:53 PM,-0.9,-15.0,52,30.64,10.0,SE,16.1,33.4,N/A,,Clear,130,2013-12-04 08:53:00